Lapse_Rate
8.1 7.8 7.7 7.4 7.0 6.9 6.7 7.6 7.5 7.6 7.5 7.3 7.3 7.3 7.3 7.0 6.7 6.5 6.5 6.6 6.8 6.6 6.4 6.5 6.5 6.5 6.6 6.5 6.3 6.3 6.2 6.3 6.0 5.9 6.0 5.9 5.9 6.3 6.4 6.3 6.3 6.5 6.2
8.5 8.3 7.8 7.5 7.3 6.9 6.6 6.8 7.5 7.4 7.6 7.5 7.4 7.2 7.1 6.9 6.7 6.5 6.6 6.8 6.9 6.9 6.6 6.5 6.4 6.4 6.4 6.5 6.4 6.4 6.3 6.2 6.1 6.2 6.0 5.9 5.9 6.0 6.1 6.1 6.1 6.0 6.2
8.3 8.6 8.4 7.9 7.4 7.1 6.8 6.3 7.2 7.5 7.4 7.6 7.3 7.1 7.0 6.9 6.9 7.0 7.0 7.1 6.9 6.7 6.7 6.8 6.7 6.5 6.5 6.4 6.4 6.3 6.3 6.2 6.2 6.0 6.1 6.0 5.9 5.7 6.0 6.2 6.7 6.5 6.2
8.1 8.6 9.2 8.7 7.8 7.2 7.0 6.4 6.3 7.5 7.6 7.4 7.3 7.4 7.2 7.2 7.3 7.2 7.1 7.0 6.9 6.9 6.8 6.8 6.8 6.9 6.8 6.8 6.7 6.5 6.4 6.3 6.3 6.1 6.1 6.1 5.9 5.7 5.6 5.5 5.8 6.1 6.3
8.1 8.2 8.4 8.8 8.3 7.4 6.9 6.8 6.6 6.4 7.2 7.5 7.5 7.5 7.2 7.2 7.2 7.0 7.1 7.0 6.9 6.9 7.0 6.9 6.9 6.9 7.0 7.1 7.1 6.9 6.8 6.6 6.4 6.2 6.1 6.1 6.2 6.2 6.0 6.0 5.8 5.4 5.7
8.3 8.0 8.2 8.2 8.2 7.8 7.4 7.2 7.3 7.0 6.6 7.2 7.6 7.4 7.4 7.3 7.3 7.2 7.2 7.1 7.1 7.0 6.9 6.9 7.0 7.0 7.1 7.2 7.2 7.1 7.0 6.9 6.7 6.6 6.4 6.3 6.2 6.3 6.3 6.3 6.3 5.8 5.7
8.1 8.3 7.9 8.1 8.1 8.1 7.9 7.3 7.1 7.1 7.1 6.7 6.9 7.6 7.8 7.5 7.4 7.3 7.3 7.1 7.0 7.0 7.1 7.2 7.0 7.0 7.1 7.3 7.2 7.3 7.1 7.1 7.0 6.9 6.9 6.7 6.5 6.2 6.1 6.3 6.3 6.1 5.9
9.3 9.1 7.9 7.9 7.5 7.7 7.8 7.6 7.1 7.1 6.9 7.4 7.4 6.9 7.2 7.5 7.4 7.2 7.2 7.1 7.1 7.1 7.1 7.0 7.0 6.9 7.0 7.2 7.4 7.3 7.3 7.1 7.1 7.2 7.1 6.9 6.8 6.5 6.2 6.1 6.0 6.3 6.3
8.8 8.7 8.1 7.6 7.5 7.2 7.1 7.2 7.4 7.3 7.0 6.9 7.4 7.6 7.0 6.9 7.5 7.3 7.3 7.2 7.1 7.1 7.2 7.1 7.1 7.1 7.0 7.1 7.2 7.3 7.3 7.3 7.3 7.3 7.3 7.1 6.9 6.7 6.5 6.3 6.3 6.1 5.7
8.3 8.5 8.0 7.6 7.4 7.5 7.2 7.3 7.0 7.1 7.0 7.0 7.0 7.1 7.2 6.9 7.1 7.4 7.3 7.3 7.4 7.3 7.3 7.2 7.2 7.2 7.2 7.2 7.1 7.3 7.4 7.4 7.4 7.4 7.4 7.3 7.1 6.8 6.7 6.5 6.4 6.3 6.1
8.3 8.1 8.2 8.2 8.1 7.1 6.8 7.1 7.1 6.7 7.0 7.1 7.1 7.3 7.3 7.2 7.1 7.3 7.5 7.4 7.5 7.5 7.3 7.2 7.3 7.3 7.4 7.4 7.2 7.4 7.5 7.4 7.4 7.5 7.5 7.4 7.3 7.1 7.0 6.9 6.7 6.6 6.4
8.4 7.6 7.6 8.0 7.6 7.1 6.6 6.5 6.6 6.3 6.7 6.9 7.1 7.2 7.2 7.3 7.2 7.3 7.5 7.6 7.6 7.6 7.5 7.4 7.2 7.2 7.4 7.7 7.5 7.7 7.6 7.6 7.4 7.5 7.5 7.5 7.4 7.3 7.2 7.1 7.0 7.0 6.7
8.4 8.5 7.9 7.2 7.0 7.1 6.9 7.0 6.8 6.1 5.7 6.3 6.9 7.0 7.2 7.2 7.2 7.1 7.3 7.6 7.6 7.5 7.5 7.5 7.3 7.3 7.3 7.6 7.8 7.9 7.8 7.7 7.5 7.5 7.6 7.6 7.5 7.5 7.4 7.3 7.3 7.2 7.1
8.0 7.9 7.4 7.2 6.7 6.5 6.2 6.4 6.6 6.3 6.3 6.7 6.8 6.9 7.0 7.0 7.3 7.2 7.2 7.3 7.4 7.5 7.4 7.4 7.5 7.4 7.4 7.5 7.9 8.0 8.0 7.8 7.6 7.7 7.7 7.7 7.7 7.6 7.5 7.4 7.5 7.5 7.5
7.9 7.8 7.7 6.9 6.5 6.7 6.4 6.8 6.4 6.2 6.4 6.5 6.9 7.0 7.0 7.0 7.0 7.2 7.4 7.4 7.5 7.5 7.6 7.7 7.5 7.6 7.7 7.6 8.0 8.2 8.0 7.8 7.8 7.8 7.7 7.8 7.7 7.6 7.6 7.7 7.7 7.6 7.5
7.5 7.7 8.0 7.9 7.4 6.9 6.7 6.2 6.2 6.0 6.3 6.7 6.8 6.8 7.2 7.0 7.1 7.2 7.1 7.3 7.4 7.4 7.8 7.8 7.8 7.9 7.9 7.9 8.3 8.1 7.9 7.8 7.9 7.9 7.8 7.9 7.8 7.7 7.7 7.8 7.7 7.6 7.7
7.7 7.8 8.0 7.9 7.8 7.2 6.6 6.4 6.1 6.0 6.0 6.8 6.8 6.7 7.2 7.2 7.1 7.2 7.5 7.5 7.7 7.6 7.8 7.9 7.8 7.7 7.6 7.9 8.2 8.0 7.8 8.0 8.0 8.0 7.9 7.9 7.7 7.7 7.7 7.6 7.5 7.5 7.5
8.3 8.1 7.7 7.5 7.1 7.2 7.0 6.8 6.5 6.0 6.1 6.3 6.7 6.6 6.8 7.1 7.2 7.3 7.3 7.2 7.4 7.8 8.5 7.9 7.9 7.6 7.4 7.7 7.8 7.6 7.8 7.9 8.1 8.0 7.9 7.8 7.7 7.6 7.5 7.3 7.4 7.5 7.5
7.0 7.3 7.6 7.5 6.9 7.0 7.0 6.9 6.5 6.2 6.6 6.9 6.9 6.8 6.7 6.6 6.8 7.1 7.1 7.1 7.1 7.1 7.3 7.6 7.6 7.3 7.2 7.3 7.2 7.4 7.6 7.9 8.1 7.9 7.8 7.8 7.6 7.5 7.4 7.4 7.5 7.7 7.5
7.7 7.5 6.8 6.8 7.2 7.3 6.9 6.8 6.7 6.5 6.4 6.2 6.8 6.7 6.8 6.7 6.8 6.9 7.0 7.0 7.2 7.1 6.7 7.0 7.3 6.8 7.0 7.6 7.2 7.5 7.8 8.0 7.9 7.8 7.7 7.7 7.6 7.5 7.4 7.5 7.5 7.5 7.4
7.8 7.8 7.6 7.3 7.1 7.0 7.6 7.0 6.7 6.6 6.7 6.6 6.6 6.7 6.6 6.5 6.5 6.8 7.0 7.0 7.2 7.4 7.2 6.9 7.0 6.7 6.9 7.2 7.4 7.5 7.7 7.9 7.9 7.8 7.7 7.6 7.5 7.4 7.3 7.3 7.1 7.3 7.1
7.6 7.6 7.8 7.7 7.6 7.6 7.3 7.7 7.3 7.0 6.8 6.5 6.6 6.8 6.7 6.9 6.8 6.7 6.9 7.2 7.2 7.4 7.5 7.2 7.2 7.0 7.0 7.1 7.4 7.5 7.8 8.0 8.0 7.9 7.8 7.6 7.3 7.3 7.2 6.9 6.8 6.9 6.7
8.1 7.9 7.7 7.6 7.5 7.5 7.4 7.6 7.7 7.3 7.2 6.8 6.5 6.7 7.0 6.7 6.8 6.8 6.8 7.1 7.5 7.6 7.6 7.3 7.4 7.3 7.1 7.2 7.4 7.4 7.6 7.7 8.0 8.0 8.0 7.8 7.4 7.1 6.7 6.6 5.8 5.8 6.6
8.0 8.3 8.0 7.7 7.7 7.3 7.2 7.3 7.5 7.4 7.3 7.3 6.9 6.5 6.6 7.3 7.3 7.2 7.4 7.1 7.1 7.6 7.6 7.6 7.5 7.7 7.6 7.2 7.2 7.6 7.7 7.6 7.7 7.7 7.7 7.5 6.9 6.6 6.7 6.0 5.9 6.4 6.2
7.5 7.5 7.6 7.3 7.3 7.4 7.5 7.3 7.4 7.4 7.2 7.3 7.3 7.0 6.7 6.7 7.1 7.2 7.2 7.1 6.8 6.9 7.3 7.7 7.8 7.7 7.7 7.7 7.5 7.3 7.3 7.2 7.2 7.5 7.3 6.8 6.3 6.2 6.3 6.1 6.7 6.0 5.7
7.1 7.2 7.4 7.3 7.4 7.4 7.4 7.5 7.7 7.8 7.4 7.2 7.4 7.2 6.9 6.6 7.0 7.1 6.9 7.0 7.2 7.3 7.3 7.3 7.6 7.9 8.1 7.7 6.4 6.7 6.5 5.7 6.0 5.5 5.6 6.3 6.3 5.9 6.6 6.8 6.1 5.8 5.7
Wind_Speed
20 20 18 18 17 17 21 22 19 16 14 13 12 12 13 11 11 11 14 18 20 22 17 11 9 7 9 10 8 5 7 6 5 3 4 4 6 7 6 6 6 8 14
18 19 19 16 17 14 20 21 22 19 15 13 12 12 11 11 11 10 11 16 17 21 15 15 13 12 9 10 8 9 5 6 5 6 2 4 4 6 6 6 7 8 10
18 15 19 19 18 17 15 20 22 22 18 17 10 10 9 8 9 11 13 13 17 19 19 16 13 12 11 10 10 7 12 9 7 7 5 3 5 3 5 11 10 10 6
17 15 17 20 18 19 14 18 19 21 20 20 16 16 14 14 14 13 12 14 16 16 17 15 16 14 10 13 11 9 7 8 8 4 9 9 1 2 3 1 7 6 6
12 14 9 9 20 15 12 9 14 20 21 21 20 16 16 13 11 10 14 14 14 17 17 17 16 16 12 12 13 12 13 10 9 7 5 9 8 6 4 6 4 3 4
16 13 14 8 7 12 15 14 14 12 21 22 23 20 21 18 13 13 12 12 12 12 17 18 17 15 15 14 12 13 14 13 11 10 9 5 7 8 6 7 7 7 4
21 20 17 14 13 11 6 10 15 20 18 17 24 24 23 20 20 17 13 14 12 11 16 19 17 15 17 16 13 13 13 14 13 12 11 9 8 4 7 7 5 4 2
6 8 6 4 5 9 10 8 12 18 15 14 13 14 23 15 15 16 13 11 12 12 14 16 17 18 17 15 14 11 12 14 11 16 11 8 8 6 4 4 4 2 3
5 5 2 6 7 5 5 7 14 10 9 8 6 8 10 20 18 17 16 12 13 11 14 15 18 18 17 17 16 13 14 12 14 12 12 10 7 4 4 3 4 4 4
7 7 6 8 7 7 4 2 4 3 5 7 7 10 11 13 17 15 15 14 16 10 13 16 16 18 17 17 17 15 14 15 10 11 11 11 8 5 4 4 3 4 7
3 6 7 11 5 5 1 0 4 5 4 3 5 7 9 10 10 13 15 14 13 16 13 15 16 17 18 17 17 17 15 16 14 10 13 12 8 5 5 4 4 5 5
7 4 6 6 7 10 6 4 7 7 6 7 7 7 5 7 10 11 13 15 14 14 16 15 17 17 18 18 19 18 16 19 17 16 13 10 6 8 7 6 7 6 6
12 8 6 6 5 7 6 9 10 9 4 5 4 4 7 7 8 9 11 13 14 14 15 15 16 18 18 18 18 18 17 16 17 15 13 12 10 9 6 7 6 4 3
13 12 11 6 5 6 7 6 7 7 8 5 5 5 6 6 8 10 11 10 12 14 14 15 17 16 16 17 17 18 15 15 14 13 13 12 11 11 9 6 6 5 5
15 13 11 6 5 6 5 6 7 6 6 9 6 5 6 6 7 7 9 11 9 12 13 14 14 14 15 14 17 16 15 15 13 9 8 8 9 11 10 6 7 8 5
14 13 15 11 10 7 6 9 8 5 5 6 10 7 7 5 6 7 7 7 9 11 12 15 15 15 12 14 16 14 12 14 13 10 6 6 9 9 13 11 11 11 9
13 16 6 10 9 13 9 6 7 4 5 6 9 10 7 6 6 6 5 7 8 8 13 13 14 16 9 17 15 14 10 12 11 11 9 7 4 10 8 11 12 11 9
14 12 13 13 10 12 14 11 4 5 5 7 9 11 8 7 6 6 6 5 3 3 2 3 4 6 5 15 17 15 10 8 10 11 12 11 10 10 13 10 9 7 7
17 16 8 7 10 13 15 14 8 6 7 8 8 8 8 7 6 7 7 4 4 3 4 3 6 8 6 10 18 12 9 8 8 9 10 12 11 14 16 13 10 6 4
17 16 17 13 10 11 14 15 10 8 9 7 9 7 6 10 7 7 7 4 4 4 4 5 6 10 9 12 15 14 8 7 6 5 8 14 14 17 17 13 11 9 4
20 21 20 16 16 15 15 17 15 12 10 7 8 8 7 7 8 7 5 5 5 5 5 6 5 6 9 13 14 17 11 10 9 8 6 6 17 16 15 15 8 6 9
18 18 17 18 19 18 17 19 19 15 11 8 7 7 6 6 5 7 6 4 5 5 5 5 2 1 5 10 12 17 17 15 12 11 8 9 17 17 16 10 14 16 10
18 16 17 20 19 19 19 20 20 17 13 11 9 6 5 7 6 6 4 3 5 6 5 5 5 3 3 5 9 12 20 17 11 10 15 22 22 22 15 20 18 9 7
18 17 20 20 21 20 20 21 21 19 17 14 11 7 6 5 5 4 3 5 6 6 6 6 6 4 4 6 5 4 7 10 9 15 14 13 12 11 13 12 9 6 5
19 19 19 19 22 22 22 23 22 20 18 15 12 7 6 6 5 3 2 6 8 9 8 8 9 9 8 9 11 11 8 7 11 10 8 9 8 9 10 8 6 6 6
20 21 22 21 22 22 24 24 23 21 20 17 12 6 5 5 4 4 3 4 9 8 10 10 11 9 9 20 22 19 21 23 20 11 10 7 7 9 9 9 7 6 7
Wind_Direction
209 198 206 188 189 178 168 173 178 186 180 191 193 202 206 205 207 204 206 203 195 195 201 214 198 220 206 208 203 194 199 212 207 238 267 268 222 213 216 215 222 227 230
225 203 195 190 186 184 174 173 179 182 189 192 199 204 203 208 208 212 208 206 199 194 199 204 213 205 214 206 207 198 204 214 193 210 215 254 287 239 220 222 229 232 220
247 211 196 192 179 189 176 181 179 182 189 194 198 200 212 205 207 210 212 207 204 197 200 203 208 214 208 210 208 201 199 209 210 207 170 201 228 222 210 223 223 225 222
231 252 204 189 187 188 184 182 184 184 189 191 194 204 205 207 211 210 211 211 206 205 202 203 206 209 213 214 210 207 204 199 210 199 222 241 196 207 310 12 217 203 218
231 250 255 203 194 182 181 178 187 185 189 192 200 201 211 217 214 211 210 208 208 205 205 203 204 209 214 211 214 207 205 206 212 217 196 227 234 239 231 261 266 233 219
248 257 248 249 236 185 183 188 193 204 191 193 199 205 205 215 214 210 211 210 208 205 207 207 208 209 211 217 207 214 205 210 211 217 223 209 207 216 210 233 238 245 235
218 226 240 238 245 248 217 202 200 211 210 195 197 203 210 207 218 214 211 208 207 206 207 205 207 208 212 211 216 207 215 206 212 209 218 226 228 203 204 220 240 235 256
341 213 216 283 280 228 254 231 193 217 211 210 218 203 209 214 216 221 216 216 213 209 206 202 208 210 209 213 210 216 210 216 210 214 218 217 224 225 225 199 191 251 234
288 285 242 268 267 260 270 275 242 178 181 197 218 240 229 212 217 220 220 226 214 208 200 199 204 209 207 207 209 213 217 208 216 214 212 219 225 223 196 177 165 170 247
307 288 273 246 195 238 233 280 214 187 185 207 214 225 236 236 216 221 225 220 228 219 199 197 200 204 206 205 206 213 214 213 210 211 210 213 216 203 175 175 170 186 230
67 14 1 8 3 18 92 236 169 194 216 252 234 233 232 246 224 215 227 227 225 221 213 194 197 200 203 204 207 211 210 212 208 201 204 208 185 181 175 178 184 204 203
34 357 347 353 346 337 330 253 224 195 206 208 216 234 252 233 234 238 223 224 224 220 221 203 199 200 203 202 205 209 205 211 211 208 205 193 175 189 182 187 200 204 193
7 341 306 292 318 281 23 2 4 346 6 352 323 266 224 229 248 253 231 226 229 226 224 212 206 204 203 202 204 206 207 207 210 203 190 190 179 193 186 191 193 186 153
331 330 329 338 345 353 357 347 331 336 333 303 265 271 269 244 227 235 249 234 221 225 226 222 215 206 206 203 203 201 197 198 203 198 186 183 186 189 180 172 169 152 153
301 298 298 301 294 293 307 311 318 309 325 310 300 278 278 266 263 251 230 237 235 226 225 223 220 213 209 204 198 190 188 190 189 172 162 168 167 162 163 159 167 163 157
283 284 280 285 287 271 252 251 250 263 267 279 292 272 274 259 268 267 260 244 236 224 226 224 219 217 214 184 175 181 188 181 160 150 125 122 124 137 152 158 161 171 160
300 297 328 335 332 347 324 295 263 296 333 310 291 285 260 258 249 263 293 283 242 229 225 222 222 219 195 165 166 158 180 165 158 148 141 126 122 127 113 103 99 77 66
354 10 15 347 348 328 318 314 316 318 306 297 287 285 285 262 243 261 259 256 245 208 197 171 141 128 133 155 152 150 157 147 149 149 146 140 147 143 138 125 104 81 62
4 328 329 330 328 319 310 296 292 268 266 267 273 290 301 264 240 228 242 226 212 208 186 178 167 136 172 145 146 144 141 147 143 140 140 148 151 150 140 127 120 98 61
335 329 332 316 295 292 292 292 282 270 274 274 277 261 274 297 268 246 219 203 187 198 164 185 203 170 175 162 161 142 134 138 143 108 123 148 145 138 138 136 140 137 153
329 326 320 316 313 313 307 292 285 282 273 263 259 258 239 252 277 274 227 187 202 170 175 171 153 170 174 177 177 149 157 158 154 143 134 138 135 130 130 133 142 146 136
321 318 312 308 305 305 302 297 287 270 274 263 265 264 267 256 234 252 246 196 147 155 158 148 100 92 162 183 184 166 151 162 154 152 140 138 128 122 117 110 122 124 124
319 320 315 311 308 303 297 294 291 287 266 256 250 248 282 288 281 241 220 152 167 176 174 173 188 185 148 189 189 176 150 157 145 147 149 144 137 127 118 126 129 137 135
317 321 316 306 301 298 295 288 288 291 284 267 251 223 222 244 283 280 165 189 191 200 187 189 192 172 184 171 161 145 138 116 123 131 135 137 131 124 121 126 130 142 142
314 308 302 299 293 292 290 288 286 287 285 282 274 218 207 204 223 188 269 213 211 202 194 202 190 176 193 196 162 162 159 145 132 120 124 135 141 141 141 136 144 143 165
309 300 291 285 280 275 275 277 279 285 279 282 270 240 189 182 154 163 240 9 336 241 200 187 192 203 210 168 163 159 144 133 140 145 146 158 166 151 153 147 149 172 188